Regional Weather Roundup
Issued by NWS Kansas City/Pleasant Hill, MO

Home | Current Version | Previous Version | Text Only | Print | Product List | Glossary On
Versions: 1 2 3 4 5 6 7 8 9 10 11 12 13 14 15 16 17 18 19 20 21 22 23 24 25 26 27 28 29 30 31 32 33 34 35 36 37 38 39 40 41 42 43 44 45 46 47 48 49 50
000
ASUS43 KEAX 201404
RWREAX

WEATHER ROUNDUP FOR EASTERN KANSAS AND NORTHWEST MISSOURI
NATIONAL WEATHER SERVICE KANSAS CITY/PLEASANT HILL MO
900 AM CDT MON OCT 20 2014

KSZ040-057-103>105-MOZ028-029-037-043-201500-
...KANSAS CITY METROPOLITAN AREA...

CITY           SKY/WX    TMP DP  RH WIND       PRES   REMARKS
K.C. INTL      MOSUNNY   56  52  86 NW6       30.04R
K.C. DOWNTOWN  SUNNY     57  53  86 CALM      30.04R
LEES SUMMIT    SUNNY     56  53  90 W5        30.04R
OLATHE - IXD   FAIR      55  53  93 W3        30.06R
OLATHE - OJC   SUNNY     56  54  93 CALM      30.04R
LAWRENCE       MOSUNNY   51  49  92 NW3       30.05R FOG

$$

MOZ001>008-011>017-020>025-030>033-038>040-044>046-053-054-201500-
...NORTHERN AND CENTRAL MISSOURI...

CITY           SKY/WX    TMP DP  RH WIND       PRES   REMARKS
ST. JOSEPH     SUNNY     49  48  97 N3        30.06R
MOSBY          MOSUNNY   45  45 100 CALM      30.04R
WHITEMAN AFB   SUNNY     57  53  86 W8        30.03R
CLINTON        SUNNY     57  54  88 SW6       30.05R
SEDALIA        SUNNY     59  53  80 W7        30.04R
WARSAW         NOT AVBL
MARSHALL       SUNNY     57  55  94 W3        30.04R
CHILLICOTHE      N/A     57  49  74 CALM      30.04R
MOBERLY        SUNNY     55  50  82 W8        30.02R
KIRKSVILLE     SUNNY     55  47  74 N10G18    30.02R

$$

MOZ041-047>049-056>058-063>065-088>090-097-201500-
...EASTERN AND SOUTHERN MISSOURI...

CITY           SKY/WX    TMP DP  RH WIND       PRES   REMARKS
ST. LOUIS INTL MOSUNNY   60  51  72 W9        29.99R
SPIRIT OF STL  SUNNY     58  51  78 W8        29.99R
COLUMBIA       SUNNY     57  53  86 W9        30.02R
JEFFERSON CITY SUNNY     55  51  86 CALM      30.03R
MEXICO         SUNNY     59  57  94 W9        30.01R
ROLLA          MOSUNNY   56  50  80 SW8       30.02R
LEBANON        SUNNY     61  52  72 W8        30.06R
OSAGE BEACH    CLOUDY    59  52  77 W6        30.04R
SPRINGFIELD    PTSUNNY   59  52  77 SW6       30.06R
BRANSON        PTSUNNY   57  54  88 SW6       30.08R
NEVADA         SUNNY     59  54  82 SW7       30.07R
JOPLIN         CLOUDY    60  52  74 SW9       30.07R
WEST PLAINS    SUNNY     55  49  80 W8        30.07R

$$

IAZ060-094-KSZ022-034>040-054-083-096-NEZ052-066-093-201500-
...KANSAS...SOUTHEAST NEBRASKA AND IOWA...

CITY           SKY/WX    TMP DP  RH WIND       PRES   REMARKS
TOPEKA         SUNNY     53  51  93 NW5       30.06R
MANHATTAN      SUNNY     48  46  93 CALM      30.07R FOG
EMPORIA        SUNNY     53  53 100 W5        30.06R
CHANUTE        SUNNY     59  54  83 SW5       30.06R
WICHITA        SUNNY     59  55  87 CALM      30.06R
OMAHA          SUNNY     48  43  82 N6        30.09R
LINCOLN        SUNNY     47  42  83 N6        30.11R
FALLS CITY     SUNNY     52  48  86 NW5       30.05R
LAMONI         SUNNY     52  45  77 N10       30.04R
DES MOINES     SUNNY     50  43  77 NW6       30.04R

$$




USA.gov is the U.S. government's official web portal to all federal, state and local government web resources and services.